Find Starlink 32099

NORAD ID: 59697 Int'l Des: 2024-086 Owner: SPXS Country: US Constellation: starlink operational
LEOCIRCULAR

現在のビュー

3D地球を読み込み中...

About Starlink 32099

Starlink 32099 (NORAD 59697) is a starlink constellation satellite (v2 mini) launched May 8, 2024 by SPXS of US. It operates in LEO, CIRCULAR orbit with a mass of 730.00 kg.

Starlink 32099について

説明を読み込み中...

次回通過

Passes for default location (London). Set your location on the main map for personalized predictions.

高度履歴

Loading altitude history...

軌道要素

1 59697U 24086R 26170.16263756 .00004711 00000-0 18056-3 0 9994
2 59697 43.0017 206.6190 0001909 279.9324 80.1312 15.27588359119630
Epoch: Jun 19, 2026 • Age: 26 hours

現在のステータス

高度 491.6 km
速度 7.62 km/s
衛星直下点 -34.63°S, 149.45°E
打ち上げ日 May 8, 2024
運用期間 2.1 years
タイプ internet

技術仕様

分類 Payload
質量 730.00 kg
乾燥質量 700.00 kg
総質量 730.00 kg
長さ 0.30 m
直径 4.10 m
スパン 29.00 m
形状 Box + pan
製造者 SPXS
バスタイプ Starlink V2M
フェーズステータス In Orbit
所有者/国 SPXS/US

Most Searched